This is the latest recevied weather packets stored in our database for station/object WW5JC. If no packets are shown the sender has not sent any weather packets the latest 10 day(s).
| Time | Temp. | Humidity | Pressure | Rain* | Wind** | Luminosity | Snow |
|---|---|---|---|---|---|---|---|
| 1777740554 | 20.56° C | 39% | 1023.8 hPa | 0 mm | - | 667 W/m² | - |
| 1777740251 | 20.56° C | 39% | 1023.7 hPa | 0 mm | - | 658 W/m² | - |
| 1777739947 | 20° C | 46% | 1023.6 hPa | 0 mm | - | 651 W/m² | - |
| 1777739643 | 20.56° C | 43% | 1023.5 hPa | 0 mm | - | 641 W/m² | - |
| 1777739341 | 20.56° C | 41% | 1023.3 hPa | 0 mm | - | 634 W/m² | - |
| 1777739037 | 20.56° C | 43% | 1023.6 hPa | 0 mm | - | 626 W/m² | - |
| 1777738735 | 20° C | 42% | 1023.5 hPa | 0 mm | - | 617 W/m² | - |
| 1777738431 | 20.56° C | 43% | 1023.4 hPa | 0 mm | - | 606 W/m² | - |
| 1777738129 | 20° C | 46% | 1023.6 hPa | 0 mm | - | 596 W/m² | - |
| 1777737827 | 20° C | 44% | 1023.6 hPa | 0 mm | - | 584 W/m² | - |
| 1777737525 | 20° C | 44% | 1023.6 hPa | 0 mm | - | 575 W/m² | - |
| 1777737223 | 20° C | 47% | 1023.5 hPa | 0 mm | - | 563 W/m² | - |
| 1777736919 | 20° C | 47% | 1023.5 hPa | 0 mm | - | 553 W/m² | - |
| 1777736310 | 20° C | 46% | 1023.4 hPa | 0 mm | - | 526 W/m² | - |
| 1777736007 | 19.44° C | 48% | 1023.2 hPa | 0 mm | - | 519 W/m² | - |
| 1777735705 | 19.44° C | 51% | 1023.1 hPa | 0 mm | - | 504 W/m² | - |
| 1777735402 | 18.89° C | 48% | 1023.3 hPa | 0 mm | - | 493 W/m² | - |
| 1777735100 | 18.89° C | 52% | 1023.3 hPa | 0 mm | - | 477 W/m² | - |
| 1777734796 | 18.89° C | 53% | 1023.1 hPa | 0 mm | - | 465 W/m² | - |
| 1777734494 | 18.33° C | 58% | 1023.3 hPa | 0 mm | - | 451 W/m² | - |
| 1777734190 | 18.33° C | 58% | 1023.4 hPa | 0 mm | - | 437 W/m² | - |
| 1777733886 | 18.33° C | 59% | 1023.1 hPa | 0 mm | - | 423 W/m² | - |
| 1777733583 | 18.33° C | 60% | 1023.2 hPa | 0 mm | - | 408 W/m² | - |
| 1777733279 | 17.78° C | 65% | 1023.2 hPa | 0 mm | - | 394 W/m² | - |
| 1777732977 | 17.22° C | 62% | 1023.3 hPa | 0 mm | - | 382 W/m² | - |
* Rain latest hour (hover to see other rain measurements)
** Current wind speed in m/s (hover to see current wind gust speed)